Theta_e
293 294 294 294 294 295 295 295 295 296 296 297 297 298 298 298 298 296 298 300 300 298 298 298 297 296 295 296 293 293 293 293 293 293 294 294 295 294 294 293 293 293 293 293 292 293 291 290 290 291 292 291 291 290 291 291 292 292 291 291 289 287 287 288 287 287 285 284 285 284 284 285 286 285 284 284 284 284 285 284 284 283 282 282 283
290 290 292 293 293 294 294 294 295 294 295 296 296 296 297 298 297 297 298 299 299 299 299 300 301 299 298 296 293 293 292 291 291 292 292 294 294 294 294 294 293 293 293 292 291 291 290 290 290 290 290 290 290 291 291 293 292 291 291 289 289 288 286 287 288 288 286 284 282 282 282 283 285 283 283 283 284 284 285 284 284 283 282 282 282
289 289 290 291 292 293 293 294 294 295 295 295 296 296 296 297 297 297 298 298 298 299 298 297 297 298 297 294 293 291 291 292 292 292 292 291 291 292 293 294 294 293 292 292 291 291 290 290 290 290 290 292 290 290 290 291 291 291 290 289 287 287 287 288 288 289 286 286 285 283 281 281 284 283 283 282 282 283 284 284 284 283 283 283 282
290 289 289 290 291 292 293 293 293 294 295 294 295 295 296 297 296 297 297 297 298 298 297 295 296 295 295 295 294 294 290 290 290 290 290 290 289 290 291 291 291 293 293 293 290 290 290 289 290 290 290 291 290 290 289 290 290 290 289 289 288 286 286 286 288 288 287 287 285 286 282 283 281 280 280 283 283 282 283 283 283 282 282 283 282
290 290 289 289 289 290 291 292 293 293 293 293 294 294 295 296 296 296 297 297 297 297 295 295 294 293 293 292 293 291 291 291 290 288 289 289 288 288 289 290 290 290 290 290 290 289 289 289 289 289 289 290 291 290 290 290 290 289 289 289 289 288 285 285 287 288 288 286 288 284 282 283 284 281 281 281 282 282 282 282 283 282 282 282 281
290 290 290 289 289 290 291 292 292 292 293 293 294 294 295 295 296 296 296 296 297 297 295 295 294 292 291 290 289 289 288 288 288 287 288 288 287 288 289 290 290 289 289 289 289 289 289 289 289 289 289 290 290 289 289 289 289 290 290 289 289 289 288 286 285 286 286 286 285 286 287 287 282 281 282 278 280 281 281 282 281 282 282 281 281
289 290 289 288 288 288 290 290 291 292 293 294 294 294 294 295 295 295 295 295 296 295 296 296 293 292 292 292 292 290 289 290 291 291 290 290 290 290 290 290 290 289 290 290 290 289 289 289 289 289 289 289 289 288 287 287 288 288 289 288 287 289 288 287 285 285 285 284 284 285 285 286 286 283 281 279 277 280 281 280 280 281 281 281 281
289 290 290 289 288 288 289 290 291 292 293 293 293 294 294 294 294 294 295 295 294 294 294 295 293 293 293 293 293 291 291 289 289 289 290 290 289 289 289 289 291 291 290 291 290 290 290 291 290 290 289 290 290 289 288 288 289 289 289 288 288 289 288 287 286 285 285 283 285 284 284 284 283 284 285 283 282 277 277 279 281 281 281 281 281
288 289 290 289 288 288 289 289 291 292 292 292 292 293 293 294 294 294 294 294 294 294 294 293 294 293 293 293 291 291 290 289 290 290 289 289 288 288 288 289 289 290 291 290 291 291 291 290 290 290 290 289 289 289 289 289 290 289 289 290 290 289 288 288 286 285 284 282 282 282 282 281 281 282 282 282 279 277 276 275 276 280 280 280 280
288 289 290 290 290 289 289 289 289 290 292 292 292 292 292 293 293 293 292 293 293 293 293 293 294 294 292 292 290 289 289 288 288 287 288 288 287 287 288 288 288 289 290 290 290 290 290 290 290 290 290 290 290 289 288 288 289 288 288 288 287 286 286 287 286 284 284 284 284 283 282 281 281 280 279 278 278 278 276 275 276 275 275 277 278
286 287 289 290 289 289 288 288 289 289 289 291 291 291 291 292 292 291 291 292 292 292 293 292 293 294 293 291 289 288 287 287 286 286 287 287 286 286 287 287 288 288 289 289 289 289 289 290 289 289 290 289 289 288 288 288 287 286 285 285 285 284 284 284 284 283 283 282 282 282 282 282 280 279 278 279 278 277 277 276 275 276 275 275 277
284 286 287 288 286 286 287 287 288 288 288 289 290 290 290 291 291 290 291 290 291 292 292 292 293 293 293 292 290 289 288 287 287 286 286 286 286 286 287 287 287 287 287 287 288 288 287 288 288 288 287 287 287 288 287 287 286 285 285 284 284 284 284 283 282 281 281 281 280 281 281 281 280 279 279 279 278 277 276 275 275 276 276 277 279
283 284 285 286 286 286 286 287 287 287 287 288 289 290 290 290 290 289 289 290 290 291 291 292 292 292 292 291 291 290 289 289 288 287 287 287 286 286 285 285 285 285 286 285 287 287 287 286 286 286 286 287 287 287 287 287 287 286 284 284 283 283 283 282 281 281 281 280 279 280 279 279 278 279 279 277 276 277 277 275 276 276 274 275 276
283 284 284 286 286 286 287 287 287 288 288 288 289 289 289 289 289 289 289 289 290 290 291 291 291 291 292 291 290 289 289 289 288 288 288 287 287 286 286 285 285 284 285 285 286 287 287 287 287 287 287 287 287 287 286 285 284 283 283 282 282 282 282 281 280 280 280 280 280 278 278 278 277 278 277 277 277 276 275 275 274 275 275 274 276
283 283 284 286 287 287 287 287 287 288 288 288 288 288 289 288 289 289 288 289 289 289 289 290 291 291 290 289 289 288 288 288 288 288 288 287 286 286 286 285 285 285 285 285 286 286 286 286 286 286 286 286 286 285 285 284 284 283 282 282 282 282 281 281 280 280 279 279 278 278 277 277 276 276 276 276 276 276 275 275 274 274 274 273 273
283 283 284 285 287 287 287 287 287 288 288 288 288 288 288 288 288 288 288 288 289 289 289 289 290 290 290 289 288 288 288 287 287 287 286 286 285 285 285 285 285 285 285 285 285 285 285 285 285 285 285 284 284 284 284 283 283 282 282 281 281 282 280 280 279 279 278 278 278 277 276 275 276 276 276 275 275 276 275 275 276 274 272 271 272
284 284 284 285 286 287 287 286 287 287 288 287 288 288 288 288 288 287 287 288 288 288 288 289 290 289 289 288 288 287 287 286 286 285 285 285 285 285 284 285 285 284 284 284 283 284 284 284 283 283 283 283 283 283 283 283 283 282 281 281 280 280 280 279 279 278 278 277 277 276 276 275 275 276 275 275 275 275 275 274 274 273 274 272 272
285 285 285 285 286 287 287 287 287 287 287 287 288 288 288 288 288 287 287 287 287 288 288 288 288 288 288 287 287 287 287 286 286 285 285 285 285 285 285 284 283 284 284 284 283 283 283 284 283 283 283 283 283 283 282 282 282 281 281 280 280 280 279 279 278 278 277 277 277 276 275 275 275 274 274 274 274 274 274 274 275 275 275 273 273
286 285 284 285 285 286 286 286 287 287 287 288 288 288 287 287 287 287 286 287 287 288 288 288 289 288 288 287 287 287 287 286 286 286 285 284 284 284 284 283 283 283 283 282 282 282 282 282 282 282 282 282 282 282 282 281 281 280 280 279 280 279 278 277 277 277 277 276 275 274 274 274 274 274 274 274 275 275 274 274 273 274 273 273 273
287 286 285 285 285 286 286 286 286 286 286 287 287 287 287 287 287 286 287 286 287 287 288 287 288 287 287 287 287 287 286 286 286 285 284 284 284 284 283 283 282 283 282 282 282 281 282 281 281 281 281 281 281 281 281 280 280 280 279 279 279 278 278 277 277 277 277 276 275 274 274 273 273 273 273 274 273 274 274 273 273 273 272 273 273
288 288 286 285 285 286 286 286 286 286 287 287 287 286 286 286 286 286 285 285 286 286 287 287 287 286 286 286 286 286 285 285 285 284 284 283 283 283 283 282 282 281 281 281 281 281 281 281 281 281 281 281 280 280 280 280 279 279 278 278 278 278 277 276 276 276 276 275 275 274 273 273 273 272 272 273 273 273 273 273 273 272 272 272 271
287 287 286 285 285 285 284 285 285 286 286 286 286 286 286 285 285 286 285 285 285 285 286 285 286 286 286 285 285 285 285 285 284 283 283 283 283 282 282 282 281 281 281 281 280 281 280 280 280 280 280 280 280 280 280 279 279 278 278 278 278 277 276 276 276 275 275 275 274 273 273 273 273 272 272 272 272 272 272 272 272 272 272 272 273
284 284 284 284 284 283 284 284 285 285 285 285 285 285 285 285 285 285 285 284 285 285 285 285 285 286 285 285 285 284 284 284 283 283 282 282 282 282 282 280 280 280 281 280 280 280 280 280 280 280 280 279 279 279 279 279 278 278 277 277 277 276 276 275 274 274 274 274 273 273 272 273 273 272 272 272 272 272 272 272 272 272 272 272 272
281 281 282 282 282 283 283 284 284 284 284 284 284 284 284 284 284 284 284 283 284 285 285 285 285 285 285 285 284 284 283 283 282 282 281 281 281 281 281 281 281 280 279 280 280 280 280 279 279 279 279 279 279 279 279 278 278 277 277 276 276 276 276 275 274 274 273 273 273 272 272 273 273 272 272 272 272 272 272 272 272 272 272 272 272
280 280 281 281 282 282 283 284 284 284 284 284 283 283 284 284 284 283 283 283 284 284 284 285 285 284 284 284 283 283 283 282 282 281 280 281 281 281 281 280 280 279 279 279 279 279 279 279 279 278 278 278 278 278 278 278 278 277 276 276 275 275 274 274 274 274 275 273 273 273 273 272 272 272 272 271 272 272 272 272 272 272 272 273 273
280 280 281 281 282 283 283 284 284 284 284 283 283 283 283 283 283 283 283 283 283 284 284 284 283 283 283 283 282 282 282 282 281 281 281 281 281 280 280 280 279 279 279 279 278 278 278 278 278 278 278 278 278 278 277 276 276 276 275 275 275 274 274 274 274 274 274 273 273 273 273 272 272 272 272 272 272 272 272 272 272 272 272 272 271
280 280 281 282 282 282 283 284 284 284 283 283 283 283 283 283 283 283 283 283 283 283 283 283 282 282 282 282 282 282 282 281 281 280 280 280 280 280 280 279 279 279 278 278 278 278 278 278 278 278 277 277 276 276 275 275 275 275 275 274 274 274 274 274 274 274 273 273 273 273 273 273 272 272 272 272 272 272 272 272 272 272 272 271 271
281 281 281 281 281 282 283 283 283 283 283 283 283 283 283 282 282 282 282 283 283 283 282 282 282 282 282 282 282 282 281 281 281 280 280 280 280 279 278 279 279 278 277 277 277 277 277 277 277 276 276 276 275 275 275 275 275 275 274 274 274 274 273 273 273 273 273 273 273 273 273 273 273 273 273 272 272 272 273 272 272 272 272 271 271
281 281 281 281 281 282 282 283 283 283 282 282 282 282 282 282 282 282 282 282 283 282 282 282 281 281 282 282 282 281 281 280 280 280 280 279 278 278 278 278 278 277 277 277 277 277 276 276 276 276 276 276 275 275 275 275 274 274 274 274 274 274 273 273 273 273 273 273 273 273 273 272 275 276 276 276 275 275 272 271 271 272 272 271 271
281 281 282 282 282 282 282 282 282 282 282 282 281 282 282 281 281 282 282 282 282 282 281 281 281 281 282 282 281 280 280 280 279 279 279 278 278 278 278 277 277 277 277 276 276 276 275 275 275 275 275 275 275 274 277 278 278 275 274 274 274 273 273 273 273 272 272 272 272 272 274 276 277 277 277 277 278 277 276 274 272 272 272 271 270
282 282 282 282 282 282 282 282 282 281 281 281 281 282 282 281 281 281 281 282 282 281 281 281 281 282 281 281 280 280 279 279 279 279 278 278 277 277 277 277 276 276 276 276 275 275 275 275 274 274 274 274 274 275 279 281 280 280 275 274 274 273 273 273 273 272 272 272 272 272 273 276 277 277 278 278 278 278 277 277 277 276 275 272 271
280 281 281 282 282 282 282 282 282 282 282 282 282 281 281 281 281 281 281 281 281 281 281 281 281 281 281 280 280 279 278 279 278 278 277 277 277 276 276 276 275 275 275 275 275 274 274 274 274 274 274 274 274 277 281 282 282 281 278 275 274 273 273 273 273 272 272 272 272 272 272 274 274 275 275 276 278 278 278 277 277 277 276 276 275
280 280 280 281 281 281 282 282 282 282 282 282 282 281 281 281 281 281 281 281 281 281 281 281 281 280 279 279 279 279 278 278 277 277 277 277 276 276 275 275 275 275 275 274 274 274 274 274 273 273 273 273 273 278 281 282 282 282 280 277 274 274 273 273 273 273 272 272 272 272 271 272 273 277 276 273 274 275 277 277 277 277 277 276 275
280 281 281 280 281 281 281 282 282 282 282 282 282 282 282 282 281 281 281 280 281 281 280 280 280 280 279 279 279 279 278 278 278 277 277 276 275 275 275 275 275 275 274 274 274 274 274 273 273 273 273 273 273 278 282 283 283 282 281 278 274 274 274 274 273 273 272 272 271 271 271 271 272 274 272 272 272 272 273 273 274 274 274 274 274
280 280 281 281 281 281 280 280 281 281 281 281 281 281 281 281 281 281 281 281 281 281 280 280 279 280 279 279 279 278 277 277 277 276 276 276 275 275 275 275 275 275 274 274 274 273 273 273 273 273 272 272 273 278 282 283 283 283 282 279 274 274 274 273 273 273 273 272 272 272 272 271 272 272 271 272 271 271 272 272 271 270 268 267 267
281 281 281 281 281 281 280 280 281 281 281 281 281 281 281 281 281 281 281 281 281 280 280 280 280 280 280 279 279 278 278 277 277 276 276 275 275 275 275 275 275 275 274 274 274 274 273 273 273 273 272 271 272 278 281 283 283 283 283 278 274 273 273 272 272 273 273 273 272 272 271 271 271 271 273 276 274 272 272 271 269 268 266 266 266
281 282 282 282 282 282 281 281 281 281 280 280 281 281 281 280 280 280 280 280 280 280 280 280 280 280 280 279 279 278 277 277 277 276 275 275 275 275 275 276 275 274 274 274 274 274 274 273 273 272 272 272 272 277 281 283 283 284 282 276 274 273 273 272 272 273 273 273 272 272 272 272 272 271 275 277 277 275 272 271 269 267 266 266 267
281 280 280 281 281 281 281 281 280 280 281 281 281 281 281 280 280 281 280 280 280 280 280 280 280 280 279 278 278 278 277 277 277 276 275 275 276 276 275 276 275 274 274 274 274 274 274 273 273 272 273 272 272 275 280 283 284 284 282 276 274 273 272 272 272 273 273 273 273 274 273 272 272 271 276 278 278 275 271 270 268 267 265 265 267
281 281 281 281 281 282 281 281 280 280 280 280 281 281 280 280 280 280 280 280 280 280 280 279 279 279 278 278 278 278 278 277 277 277 276 276 276 276 276 276 275 275 274 274 274 273 273 274 274 273 274 273 273 274 280 282 283 284 282 276 274 273 272 272 272 272 273 272 273 274 274 273 272 273 277 278 279 276 271 271 269 267 267 266 266
279 280 281 281 281 280 280 280 280 280 280 280 280 280 280 280 280 280 280 280 281 281 281 280 280 279 278 278 278 278 278 278 277 277 277 277 277 277 276 276 275 275 274 274 274 274 273 273 274 274 273 274 273 273 276 282 283 284 283 277 274 272 271 272 272 272 271 272 272 272 274 276 277 277 277 278 279 279 273 272 270 269 267 267 266
279 280 281 280 281 281 281 281 281 281 280 280 280 279 279 279 279 279 279 280 281 282 281 281 280 280 279 278 279 279 278 278 278 277 278 277 277 277 276 276 275 275 275 274 274 274 273 273 274 274 274 274 273 273 274 280 283 284 284 279 275 274 273 272 272 272 271 271 271 272 273 276 278 278 278 278 279 279 277 271 271 270 269 269 267
279 279 280 280 280 280 280 280 280 280 280 280 280 279 279 279 279 279 279 280 281 281 281 281 280 280 280 279 279 279 279 279 279 278 277 277 277 277 277 276 276 275 274 274 274 274 273 273 273 274 273 273 274 275 273 278 282 283 284 283 276 275 275 273 272 271 271 271 271 272 272 275 278 278 278 278 279 279 279 272 272 274 274 273 266
279 279 280 280 280 280 280 280 280 280 280 280 279 279 279 279 279 280 280 280 280 280 279 279 279 279 279 279 279 279 279 279 279 279 278 277 277 277 277 276 276 275 274 274 274 274 273 273 273 273 273 273 274 274 275 274 279 283 284 284 281 278 279 275 272 271 271 271 272 272 273 275 278 278 278 279 279 279 278 274 275 276 275 274 267
276 279 280 279 280 279 280 279 280 280 280 280 279 279 279 278 279 281 280 280 279 279 279 278 278 278 278 278 278 278 278 278 279 278 278 277 277 276 276 276 275 275 274 274 274 273 273 273 272 272 273 273 273 273 275 275 276 280 283 284 283 281 280 275 274 272 272 272 272 272 273 276 277 278 279 279 279 278 276 275 277 276 276 270 259
279 280 279 280 281 280 280 279 279 279 279 280 280 279 278 278 280 280 280 279 279 278 278 277 277 277 277 277 276 276 276 276 277 277 277 276 276 276 275 276 275 275 274 274 273 273 273 273 272 272 272 273 273 273 273 275 276 277 282 283 284 283 281 280 275 274 273 273 274 275 276 277 277 278 279 279 278 278 278 277 277 277 270 261 258
275 276 277 279 279 278 279 279 279 278 279 279 279 279 278 279 280 280 280 279 278 278 277 277 277 277 276 276 275 275 275 275 275 276 276 276 275 275 274 274 275 274 274 274 273 273 273 273 273 273 273 273 273 273 273 273 275 275 277 281 283 283 281 280 277 275 275 275 276 276 276 277 277 277 277 276 275 275 277 276 276 272 263 260 258
276 278 277 277 277 278 278 279 279 279 279 279 279 279 280 279 279 279 279 279 278 277 277 277 276 276 276 275 275 275 275 275 275 275 275 275 275 275 274 274 274 273 273 273 273 272 272 272 272 272 272 273 273 272 272 272 273 273 274 276 280 281 281 280 278 275 275 274 275 275 275 276 276 277 276 276 275 275 274 274 270 264 261 260 259
277 276 277 276 278 279 279 279 280 280 280 279 279 279 280 279 278 278 278 277 277 277 276 276 276 276 276 275 275 275 275 274 274 274 274 274 274 274 274 273 273 273 272 272 272 272 272 272 272 272 272 273 272 272 272 272 272 272 273 274 276 279 280 278 277 274 274 273 273 275 275 274 274 274 274 272 271 270 268 264 261 261 259 259 258
276 275 276 279 279 279 279 279 280 281 280 280 279 280 280 279 279 278 278 277 277 276 276 276 276 275 275 275 275 275 275 275 274 274 274 275 274 274 274 274 275 275 275 274 273 273 273 274 274 273 273 273 273 272 273 275 273 275 273 273 274 276 279 279 278 277 273 272 272 272 271 271 271 270 268 268 266 261 259 261 261 259 258 257 257
276 275 275 277 278 279 279 279 281 280 280 280 280 280 280 280 279 278 278 277 277 276 276 276 276 275 275 275 275 275 275 274 274 274 273 274 275 276 277 275 275 276 277 279 278 274 275 275 274 275 275 274 274 275 277 277 277 277 277 277 276 278 280 279 279 279 274 271 271 270 270 270 269 268 266 265 264 263 259 257 257 259 257 258 257
277 274 273 275 277 278 278 279 280 279 279 280 280 280 280 280 280 279 278 278 277 277 276 276 276 276 276 276 275 275 274 274 274 274 273 273 273 275 279 280 279 276 276 279 280 280 279 279 276 274 276 279 279 278 278 278 278 278 278 278 278 278 279 281 281 276 272 270 270 269 269 269 268 268 266 266 264 263 262 260 257 257 257 257 257
Wind_Speed
3 6 6 6 7 5 4 4 4 4 4 6 3 2 4 10 6 6 4 4 5 7 8 9 10 7 7 6 5 4 5 5 5 4 4 4 4 5 5 5 5 6 5 5 5 5 5 5 6 5 5 5 7 8 8 9 8 10 10 9 15 13 8 8 8 11 14 10 8 9 8 7 7 7 7 6 6 5 5 6 5 6 6 6 5
3 2 4 5 6 6 5 4 5 5 5 5 3 4 3 2 12 7 3 4 4 5 4 4 3 4 5 6 5 5 5 5 6 4 4 5 6 5 4 4 4 5 6 5 5 5 6 5 4 5 5 6 6 7 8 9 10 10 11 9 3 11 9 8 9 6 4 9 9 6 6 6 6 7 7 6 5 5 5 5 5 6 6 5 5
4 5 4 6 6 7 7 6 5 5 6 7 4 5 6 3 4 12 9 3 4 5 4 4 4 4 4 4 5 5 4 4 5 6 5 6 6 5 6 5 5 5 5 5 5 4 5 5 4 4 4 5 8 8 8 9 9 11 10 13 9 3 6 0 1 2 6 6 7 8 3 3 1 3 4 5 5 5 4 5 5 6 6 5 6
8 9 10 8 8 8 6 5 6 6 7 7 6 7 5 7 5 4 10 11 6 5 6 6 7 7 8 7 7 4 4 5 6 7 7 7 6 5 5 5 6 6 5 4 4 3 4 5 4 4 5 2 7 10 8 8 7 7 6 8 13 11 4 1 2 2 5 10 4 1 4 4 4 2 2 3 4 6 5 5 4 5 5 5 6
9 8 9 10 11 12 12 10 9 8 7 8 7 7 6 7 8 9 7 7 10 9 7 6 7 8 7 8 8 9 7 4 7 6 5 6 6 5 5 5 6 6 5 5 5 4 4 4 4 4 4 3 4 8 9 8 6 5 7 8 9 12 8 3 1 1 4 4 4 6 4 1 3 5 6 3 3 3 5 5 5 5 5 5 5
10 10 10 11 11 9 8 9 9 9 9 8 6 7 7 8 8 8 6 6 6 10 12 9 7 7 7 8 8 6 7 7 8 9 8 8 5 5 6 5 5 6 5 6 6 5 5 5 5 5 4 3 3 5 6 6 6 7 4 3 3 1 9 8 4 1 3 3 3 2 1 3 7 7 4 3 2 2 2 3 5 5 4 5 5
10 8 7 10 11 11 11 11 11 10 9 7 7 7 8 8 9 9 9 7 6 6 6 9 12 9 6 3 5 6 6 2 2 3 4 6 6 6 5 5 5 6 5 5 6 6 5 5 5 5 5 4 3 4 6 5 4 4 3 4 3 4 4 6 8 6 3 4 4 3 3 2 7 9 4 6 3 2 1 3 4 4 4 5 5
12 13 13 12 12 14 15 15 12 12 11 9 8 7 9 9 9 10 8 8 7 7 8 6 10 10 13 11 7 6 4 3 4 4 4 6 7 6 5 7 6 6 7 5 5 6 7 7 6 5 5 4 4 4 6 5 5 4 4 5 5 4 3 7 7 5 7 3 1 3 5 6 6 6 3 6 5 7 3 1 1 3 4 4 4
12 12 13 13 14 16 14 13 14 11 10 11 10 9 8 8 8 9 9 9 9 10 9 7 7 9 10 8 7 5 7 7 4 3 5 6 9 6 7 6 6 6 5 6 5 5 5 5 6 7 6 5 4 3 4 4 4 6 5 5 4 4 3 5 7 6 4 5 4 4 4 5 4 4 3 3 4 5 3 5 4 1 3 4 4
10 13 14 13 13 13 12 9 8 11 9 7 8 8 8 8 9 10 10 9 9 11 10 11 11 10 9 10 11 8 7 6 6 6 4 6 8 7 6 5 5 5 5 6 6 5 5 5 6 6 5 5 5 5 4 5 5 5 3 4 4 6 3 5 7 5 4 3 2 3 4 3 4 3 3 4 4 3 7 7 6 6 4 2 3
9 11 11 10 7 8 8 11 13 10 8 9 9 10 9 10 11 11 10 8 9 10 11 12 10 11 11 11 11 12 11 10 9 8 7 6 7 8 7 7 5 5 5 5 6 6 6 5 5 6 5 5 6 6 5 4 4 4 4 5 5 5 3 5 6 5 4 4 4 3 4 2 3 4 5 2 4 4 7 6 3 2 3 5 2
9 9 10 10 6 9 10 12 12 13 11 11 10 10 10 10 10 12 10 11 10 10 11 11 10 9 9 12 15 13 13 10 11 12 10 10 9 9 7 7 6 5 5 6 6 6 5 5 5 6 5 5 5 4 5 4 4 4 3 4 5 5 5 5 5 6 6 5 5 4 4 4 4 4 2 3 5 5 7 8 6 3 3 2 2
10 10 9 8 10 12 13 14 12 12 13 15 14 11 11 10 11 13 12 11 11 11 12 12 11 11 9 11 10 12 12 12 12 12 11 10 9 9 9 9 8 7 7 7 6 6 6 7 7 7 6 6 6 6 6 5 4 4 4 5 5 5 4 4 4 5 5 5 5 5 5 5 5 3 3 5 4 5 9 8 2 2 4 4 0
10 10 10 10 12 13 14 15 15 15 16 15 14 13 12 11 12 12 11 11 10 10 11 11 11 10 10 10 7 7 9 9 9 11 10 9 9 9 9 9 7 8 8 5 6 7 6 6 7 7 7 7 6 6 6 5 5 5 5 5 6 5 5 6 7 7 7 7 5 6 6 5 4 3 3 4 4 5 5 8 7 3 3 3 1
10 10 11 12 14 14 14 14 14 15 15 15 14 14 12 12 13 14 12 11 11 11 10 11 10 11 10 9 7 7 7 8 8 8 9 10 9 9 7 6 6 6 6 6 6 6 6 6 6 6 7 8 7 7 6 5 5 6 6 6 6 5 6 7 6 7 7 8 7 6 6 6 5 4 4 5 4 4 6 6 7 8 3 2 2
10 11 12 13 14 14 13 13 13 12 14 13 14 13 13 13 13 13 13 12 12 11 10 11 10 9 10 11 10 8 7 6 6 6 8 7 7 8 8 7 5 6 6 6 6 6 7 7 7 6 6 6 6 6 6 6 6 6 6 6 8 3 7 8 7 8 8 8 8 6 7 6 4 4 5 5 5 5 5 4 4 5 8 3 2
11 11 13 14 13 13 14 15 14 14 13 15 15 15 16 13 13 13 11 10 11 11 10 10 10 10 11 11 10 10 10 9 8 8 7 6 5 5 5 5 6 5 6 6 6 5 5 6 7 7 5 5 5 5 5 5 5 6 6 7 8 7 7 8 6 7 7 7 6 7 6 6 5 4 5 5 5 5 5 5 4 5 3 6 4
14 14 14 15 15 16 16 15 17 17 17 17 16 12 11 12 13 14 13 14 12 12 11 10 11 11 11 11 11 11 10 9 9 9 7 8 6 6 6 6 6 5 6 6 5 6 5 6 5 5 5 5 5 5 4 4 5 5 5 5 6 7 8 6 6 7 7 6 7 6 6 6 5 6 6 5 5 5 5 5 5 4 2 4 4
11 12 13 13 13 14 16 17 17 17 16 15 15 13 10 11 11 12 14 13 13 11 10 9 10 8 8 10 11 10 9 9 10 9 7 7 8 7 7 6 7 6 6 7 7 5 5 5 5 6 5 5 5 5 5 5 5 6 5 6 5 6 7 7 6 6 5 6 7 8 6 6 5 6 5 5 4 5 5 5 5 5 5 4 4
13 14 13 14 14 16 17 17 17 16 16 15 15 13 14 12 12 11 9 9 10 11 11 11 11 9 9 10 10 10 9 11 12 10 7 7 7 8 8 8 8 6 5 6 5 6 7 7 5 5 6 5 6 5 5 6 5 4 5 6 6 6 7 7 6 5 5 6 7 7 7 6 5 5 5 5 5 5 5 5 5 6 5 4 4
13 13 12 12 12 13 13 13 14 13 12 14 14 15 14 12 12 12 14 13 13 12 11 11 10 10 11 12 11 10 11 13 14 10 7 7 7 6 6 6 8 6 6 7 7 7 7 6 7 6 6 6 6 6 5 5 5 6 4 6 6 6 8 6 7 7 6 7 7 8 7 6 5 7 5 5 5 5 5 5 5 5 5 4 4
14 14 12 11 10 11 11 11 11 12 14 16 15 13 13 13 13 13 12 11 12 12 11 10 9 10 12 11 11 10 12 11 11 11 12 9 8 9 11 10 9 7 10 11 7 9 7 7 6 7 6 6 5 6 5 5 6 7 6 5 5 7 7 6 6 8 7 6 7 9 7 6 5 7 6 6 5 5 5 5 4 5 5 4 2
13 13 9 7 9 11 13 15 17 17 16 16 15 15 14 13 13 12 13 13 12 11 10 9 10 10 11 11 11 11 11 13 14 12 12 11 10 10 10 11 10 9 8 10 10 11 8 7 6 6 7 6 6 6 5 5 5 7 7 6 6 8 8 10 9 8 8 8 8 8 7 6 6 7 6 5 5 5 4 5 4 3 4 3 2
4 1 3 5 8 10 12 13 14 13 12 14 14 13 13 13 13 12 13 13 12 11 10 10 10 10 11 11 11 11 13 12 13 11 12 11 10 9 9 9 10 9 11 10 11 9 8 7 7 7 6 6 6 6 5 5 6 7 7 9 8 8 8 8 9 9 9 8 9 9 7 7 7 8 6 6 5 5 5 4 4 3 3 3 2
2 1 4 7 9 12 13 13 13 13 12 12 13 13 14 13 12 13 12 11 11 10 11 11 11 12 12 12 12 12 13 13 13 11 12 11 11 10 9 10 10 9 10 10 7 6 7 7 7 8 7 7 6 6 6 6 8 8 9 9 8 7 7 8 8 8 8 9 9 9 9 8 7 9 6 6 5 6 5 5 4 3 4 3 2
0 1 4 8 9 9 10 11 11 12 12 12 11 12 12 12 13 11 12 12 11 10 11 11 11 12 13 13 12 12 13 14 13 11 12 12 11 11 11 9 11 8 8 6 9 8 7 7 7 7 6 6 6 9 8 9 8 7 7 7 7 7 7 7 7 7 8 7 8 8 8 8 8 9 8 7 6 6 5 5 5 4 4 3 2
1 2 3 4 6 9 10 11 11 11 11 11 11 12 12 12 12 12 11 12 12 12 12 12 11 12 12 13 13 13 12 12 12 11 10 11 11 11 11 11 11 11 8 9 7 9 6 7 8 8 10 10 8 7 8 8 8 8 8 8 8 8 7 7 6 7 7 7 7 8 8 8 8 8 8 8 7 6 6 6 5 5 4 4 3
2 4 6 8 8 9 10 11 11 11 10 10 10 10 11 12 13 12 12 12 10 12 12 12 11 12 12 13 12 11 11 11 10 11 11 11 10 10 10 10 11 10 8 9 11 9 8 7 8 9 8 8 8 8 7 8 8 9 9 8 8 9 8 7 7 6 6 7 7 7 8 7 7 7 7 6 7 7 6 6 5 5 5 4 4
5 6 7 8 9 10 10 11 11 11 12 12 11 11 10 10 11 11 12 13 12 13 13 12 12 12 13 12 11 10 10 11 11 11 12 11 10 10 10 10 10 6 5 6 7 9 9 8 7 7 7 8 9 9 8 9 9 9 8 9 9 9 9 9 8 7 7 7 7 7 7 6 6 9 11 9 8 8 7 7 5 4 5 4 4
7 8 8 8 8 10 11 11 11 13 12 12 10 12 12 12 12 11 10 10 11 12 12 12 12 12 11 11 11 10 11 11 12 13 12 11 11 11 11 11 11 11 10 8 7 6 6 8 9 8 7 7 8 7 10 16 13 10 10 8 8 9 9 9 10 9 8 7 7 6 6 11 13 14 13 13 14 13 11 8 6 5 5 5 4
8 7 9 9 8 9 11 12 14 14 15 14 12 11 11 11 11 11 11 11 11 12 12 12 13 11 11 11 11 11 12 13 12 11 11 12 12 11 10 10 11 11 11 11 8 9 7 8 9 8 9 9 8 8 17 19 19 18 11 10 10 10 9 10 10 10 10 9 7 7 6 10 11 12 11 15 14 13 12 12 13 10 7 5 4
8 9 9 9 10 10 11 12 13 13 13 13 12 12 12 12 11 11 11 10 11 11 12 12 11 11 11 12 12 12 10 13 12 13 12 12 11 11 11 12 12 9 7 7 9 9 8 7 6 7 11 9 9 12 20 21 21 21 16 11 10 10 10 10 9 10 9 9 9 8 7 6 6 7 7 8 11 13 13 12 11 9 8 9 7
8 9 11 11 12 12 12 12 11 12 13 13 13 13 13 12 12 11 10 11 12 12 12 12 12 11 12 12 12 13 12 13 12 12 11 11 12 11 7 11 10 11 8 9 8 8 9 8 9 9 11 10 9 16 21 23 22 22 21 15 9 8 9 9 9 10 10 9 9 9 8 6 6 12 7 6 7 8 11 11 10 10 10 10 9
7 9 10 11 10 10 11 13 12 12 12 12 12 13 12 11 11 10 12 12 13 12 12 12 11 12 12 12 12 13 14 13 12 12 13 10 9 9 8 8 8 9 9 10 8 11 10 9 10 8 10 9 10 16 23 23 22 22 22 15 6 10 8 8 10 10 9 10 10 10 9 8 7 8 7 8 7 6 5 5 5 6 7 7 7
7 8 8 10 11 11 11 11 11 11 9 9 8 8 8 10 10 10 10 11 12 12 12 11 12 12 11 11 13 11 13 12 14 14 10 10 10 7 9 9 9 10 11 11 11 10 10 8 8 8 10 11 10 18 22 23 22 22 21 15 6 5 7 8 8 8 9 9 9 9 9 10 9 8 7 9 8 7 6 6 7 7 5 3 2
8 10 10 10 12 13 13 13 9 10 11 12 12 11 11 11 11 12 12 12 12 12 12 12 13 13 13 13 14 13 13 11 15 10 11 9 8 10 11 11 9 6 5 5 5 6 10 11 11 10 11 11 10 20 22 22 22 21 22 10 9 9 8 7 8 6 6 7 8 9 9 9 9 8 12 17 12 8 7 8 7 6 5 3 2
5 7 9 9 9 9 10 9 10 12 12 12 11 11 11 11 11 11 12 12 12 13 13 14 14 14 14 14 14 15 15 15 11 11 12 11 10 10 7 11 10 8 9 10 10 9 7 8 9 9 9 8 10 17 22 23 23 24 18 8 9 8 7 7 7 7 7 7 8 9 8 7 9 9 14 19 18 15 9 9 9 8 6 5 4
4 3 3 6 7 6 6 9 10 10 11 10 11 12 12 13 13 13 14 14 15 16 15 14 13 12 12 12 12 13 13 13 15 12 10 8 14 8 8 12 8 10 10 9 7 6 7 7 10 10 11 8 8 15 23 22 24 25 16 10 9 9 7 7 7 7 7 7 8 15 11 9 9 9 18 19 19 15 9 9 9 9 7 6 5
5 6 7 6 8 10 10 9 10 11 10 10 11 13 13 13 12 13 13 14 16 14 13 12 10 8 8 9 10 11 12 14 16 16 16 15 15 13 12 8 6 6 7 7 9 9 8 10 10 11 14 12 8 13 22 22 24 24 16 9 10 9 9 8 8 8 7 6 8 11 16 13 11 12 20 20 21 16 10 10 10 8 9 9 8
3 2 4 6 6 7 8 11 12 13 10 11 10 11 11 12 11 11 13 15 14 12 10 9 9 10 10 11 12 13 14 14 15 13 13 13 12 11 12 12 12 10 11 10 10 10 8 11 11 10 10 11 9 9 15 23 23 25 22 11 9 10 10 10 8 9 8 8 8 8 14 20 20 21 21 21 21 20 12 10 8 8 8 8 8
3 3 4 5 7 11 13 13 11 11 12 12 11 11 11 10 10 10 13 10 8 8 9 10 10 11 11 13 12 14 15 14 13 14 13 11 12 12 11 12 12 10 10 10 12 11 11 11 11 11 9 10 10 11 16 23 24 25 26 18 11 13 11 11 10 10 8 10 9 9 8 18 23 22 21 22 21 20 15 9 9 8 7 7 12
0 2 4 5 6 6 6 6 7 11 11 11 13 14 13 13 12 15 14 11 12 12 13 13 14 14 14 14 14 13 13 12 11 11 12 12 12 12 12 12 10 10 12 12 11 10 9 10 10 10 11 12 13 17 13 21 25 26 27 25 13 13 12 11 10 10 8 9 10 10 10 17 23 22 22 22 22 20 19 11 10 12 13 16 11
1 2 3 4 5 7 9 10 8 10 11 12 13 14 13 13 15 17 12 11 10 10 10 11 11 12 13 13 12 13 12 10 10 11 13 13 11 11 11 11 11 11 11 11 10 10 9 10 9 9 10 11 12 13 18 16 24 27 27 28 22 14 19 12 11 12 12 10 8 8 10 19 22 23 22 22 20 21 17 12 17 18 16 18 14
3 3 6 6 5 4 4 4 7 9 11 12 14 14 12 13 17 12 9 9 10 11 11 12 12 12 12 12 11 12 11 10 11 11 12 12 11 11 10 10 10 10 10 11 10 10 10 11 11 11 10 11 11 11 13 20 19 27 26 28 27 22 22 13 12 10 7 8 9 10 12 22 22 22 22 22 21 19 11 19 20 19 18 16 12
6 6 5 6 8 8 7 6 5 7 8 11 12 14 13 17 16 11 11 11 10 10 10 10 10 9 9 8 8 8 10 9 10 11 12 12 12 12 12 12 12 12 12 12 12 11 12 11 11 12 11 10 11 11 11 15 21 23 26 27 28 27 25 23 14 10 8 9 11 17 19 22 22 22 24 23 19 20 19 21 21 20 15 10 10
3 2 5 7 5 5 6 8 8 9 10 9 10 11 16 19 9 10 11 11 11 11 12 12 11 10 11 10 10 10 10 11 12 11 13 12 13 13 13 12 12 13 12 13 12 11 11 12 12 12 11 11 10 10 11 11 14 19 18 25 27 29 25 25 16 11 13 16 18 18 21 23 23 20 15 12 9 9 19 23 22 15 11 9 9
7 7 6 6 6 7 8 9 10 10 11 10 11 12 13 5 7 8 9 10 11 12 12 11 12 10 9 10 12 10 9 9 10 9 10 10 10 11 12 12 12 12 12 11 11 12 12 12 13 11 10 9 9 10 11 10 11 12 14 15 16 18 20 20 15 11 12 11 15 16 14 18 13 19 14 11 9 9 12 14 9 9 9 10 9
6 5 8 6 9 10 10 10 11 11 11 11 11 13 12 9 7 9 9 9 10 11 12 11 11 10 9 10 11 13 12 10 11 11 11 11 11 12 13 14 14 14 13 13 13 13 14 13 12 10 10 9 10 11 11 12 12 12 12 11 11 11 12 13 12 11 11 11 10 11 13 11 11 12 11 8 7 7 7 6 9 8 7 7 8
6 7 9 11 10 10 10 11 12 9 10 11 12 12 11 11 10 10 11 12 12 12 11 10 10 10 11 11 11 11 12 12 12 12 12 13 14 14 14 13 13 12 14 15 15 14 14 13 12 12 13 13 12 13 15 12 12 14 14 14 14 15 13 13 15 16 10 8 8 9 10 10 11 12 10 9 8 8 8 8 9 9 8 9 9
6 5 8 8 8 10 10 11 11 8 10 12 12 12 11 11 10 10 12 14 13 11 11 11 11 11 12 11 11 11 11 11 11 11 11 10 11 14 12 13 13 16 20 18 14 14 13 12 12 13 13 15 15 13 11 19 20 21 23 23 20 18 17 11 15 24 15 10 11 11 11 12 12 11 11 10 10 12 13 11 9 8 8 9 8
6 6 7 9 10 10 9 10 9 7 9 11 11 12 11 11 12 11 13 14 12 11 11 11 12 12 13 12 11 10 10 10 10 10 10 10 9 10 18 21 16 15 17 21 22 21 18 17 13 11 11 18 14 9 16 20 23 24 25 26 26 24 24 18 22 16 13 12 12 12 13 12 12 12 12 12 11 11 11 11 11 9 9 9 9
Wind_Direction
212 185 154 163 180 183 206 180 176 210 223 240 186 100 108 125 77 42 27 21 96 119 130 139 143 129 125 132 113 120 119 107 95 99 87 87 84 90 96 103 99 105 99 100 102 103 100 110 111 108 101 122 125 127 134 131 128 124 121 119 125 119 117 130 129 120 112 86 77 76 70 59 66 59 56 50 47 47 52 60 63 67 63 63 59
131 166 187 170 180 182 197 201 190 187 224 228 194 127 95 120 132 121 19 53 53 77 98 88 68 137 141 139 129 132 130 134 126 108 106 100 92 83 77 84 86 95 109 108 110 114 118 113 99 108 118 115 113 119 127 130 132 131 131 111 88 127 133 156 159 124 79 135 137 116 79 78 68 62 54 48 42 44 47 59 57 71 72 72 70
177 203 197 194 194 191 201 210 196 193 212 223 187 145 135 116 140 138 132 82 40 45 46 61 66 52 72 119 132 109 34 57 96 109 109 102 99 96 96 86 86 83 81 100 109 108 110 111 111 113 115 128 122 123 131 136 144 144 147 136 125 43 104 67 289 334 126 118 114 106 159 116 110 74 62 49 44 39 42 52 56 65 69 75 81
212 197 198 196 196 197 195 205 205 194 198 206 187 168 157 151 158 153 150 144 130 95 87 72 78 71 66 63 49 52 123 104 93 97 96 97 91 93 90 104 99 93 86 87 89 90 109 114 118 108 104 91 138 133 137 138 145 143 132 136 132 130 143 132 359 294 154 138 141 113 160 128 120 173 111 69 46 44 37 50 49 54 66 71 77
219 209 199 190 192 202 200 198 190 195 205 202 190 176 171 169 163 162 159 155 144 123 104 109 96 87 88 79 77 78 62 77 115 111 114 108 106 90 92 87 94 96 91 90 96 86 82 89 96 90 90 85 69 128 142 148 146 140 145 145 158 144 150 149 88 135 160 353 147 129 84 298 208 130 134 82 22 34 32 34 56 54 63 68 71
224 216 205 195 200 198 202 202 198 194 201 206 196 180 168 171 158 154 146 157 163 146 142 134 118 120 133 141 138 139 149 165 170 156 144 137 119 102 82 75 86 87 84 85 89 86 75 72 69 84 80 59 54 71 79 94 126 135 139 133 125 99 148 137 128 36 37 49 22 32 126 169 145 166 131 149 48 46 29 44 46 48 63 77 73
236 226 203 193 199 197 202 202 200 196 201 183 191 187 176 171 165 156 157 155 147 142 130 139 143 143 145 126 111 124 143 116 51 56 102 105 103 92 85 69 64 86 75 71 75 83 79 75 66 63 69 69 68 80 99 93 61 63 70 93 81 104 142 137 156 143 105 38 38 55 79 13 129 136 181 104 142 175 98 41 38 40 52 70 76
226 224 214 206 197 195 203 204 198 201 186 178 181 185 185 172 168 162 158 157 157 151 153 154 150 154 153 153 148 139 138 109 109 101 92 106 104 98 99 91 78 72 87 71 77 88 90 79 76 79 76 59 71 60 100 103 97 67 70 85 99 102 129 150 142 170 164 147 50 71 69 57 45 37 96 154 142 149 174 22 123 38 58 62 76
217 222 218 208 201 202 201 197 201 192 188 186 179 182 180 172 168 164 164 162 163 161 154 150 150 150 145 141 131 106 119 129 115 102 114 121 110 106 104 106 98 89 84 90 73 82 91 90 94 102 100 94 93 93 87 92 98 107 91 90 100 75 82 128 142 154 130 145 146 78 65 64 59 57 82 89 136 131 141 173 153 127 90 60 60
223 225 225 216 207 206 202 194 183 196 194 179 176 170 174 170 170 171 172 168 168 169 162 161 159 154 152 150 139 134 129 122 131 136 133 133 119 118 117 116 114 111 103 99 98 88 90 101 105 96 94 98 101 94 84 94 92 87 89 110 114 105 71 102 118 104 92 95 67 142 124 113 70 47 47 89 57 82 159 176 167 160 142 97 72
226 228 232 230 211 192 174 190 197 187 178 180 181 178 175 177 175 177 175 166 169 171 168 167 164 165 158 152 143 143 145 144 145 147 148 140 136 133 133 130 122 114 109 110 105 112 111 110 107 106 104 112 111 110 111 108 104 103 99 89 75 83 87 91 91 83 93 85 68 54 87 102 156 163 178 177 140 127 92 103 108 108 127 124 89
233 222 225 216 187 182 181 195 192 190 183 182 186 180 179 182 177 174 174 171 170 172 171 170 168 168 164 159 158 157 154 157 158 159 165 159 151 146 142 138 137 131 134 130 128 132 126 120 115 111 113 114 106 102 99 86 81 90 90 86 89 82 93 86 86 99 93 88 76 72 80 89 76 93 122 141 148 156 133 137 137 129 80 77 110
235 227 221 203 198 192 193 197 188 188 192 189 185 182 181 181 182 179 180 172 172 173 176 171 167 169 165 166 159 157 160 160 161 160 165 160 156 153 158 154 150 151 160 147 140 129 129 123 126 126 119 105 107 106 101 92 88 76 70 77 77 79 78 72 81 78 93 97 101 81 84 80 78 59 87 112 85 106 124 120 98 105 133 135 156
230 228 220 205 202 201 198 195 190 192 194 189 183 183 184 184 183 184 181 173 170 175 176 172 170 166 163 166 143 148 157 161 159 158 161 161 162 162 165 162 155 155 147 138 133 133 129 131 126 126 122 122 116 114 116 115 114 105 94 92 86 77 78 84 90 93 86 88 91 93 79 73 71 53 70 76 104 109 107 123 128 88 86 110 131
225 223 217 208 208 201 199 197 196 194 191 190 187 184 182 184 182 183 176 177 173 173 173 176 169 167 164 152 136 151 152 160 162 166 159 160 163 162 157 147 148 145 138 132 134 129 124 126 127 126 132 133 133 135 131 122 114 108 105 102 97 97 96 95 92 97 95 96 87 87 92 78 72 70 77 74 79 79 111 138 136 127 98 93 59
232 225 223 216 209 200 196 196 197 195 191 190 191 184 184 186 183 180 177 173 173 172 176 176 172 166 163 165 164 150 151 133 136 147 155 147 146 156 154 149 138 129 120 126 129 130 131 131 131 133 133 134 136 135 131 127 125 120 118 115 111 105 105 100 104 97 95 95 94 94 92 84 77 79 75 80 76 82 86 87 104 121 134 139 120
239 227 223 220 211 200 194 191 191 189 186 190 192 191 185 178 175 176 171 170 173 173 172 173 169 164 167 167 165 163 156 160 156 149 138 115 113 116 125 123 122 126 130 134 131 131 131 133 136 136 126 121 117 117 114 116 119 118 119 121 119 117 107 106 105 100 99 98 93 96 97 97 85 78 71 68 72 70 70 71 74 119 142 128 161
235 230 226 217 207 199 195 192 187 186 186 188 188 186 185 179 178 173 172 173 175 171 171 171 168 167 168 169 171 171 170 161 126 133 130 133 136 125 124 134 144 128 136 142 123 124 118 125 115 117 114 110 107 101 96 92 94 98 100 96 107 110 104 98 96 102 105 104 104 98 97 97 92 83 82 75 74 79 74 66 71 56 51 130 154
248 237 230 222 206 200 195 191 187 185 180 179 179 177 180 180 178 180 178 174 170 169 168 167 168 167 169 170 167 166 164 162 121 125 127 140 143 145 147 139 126 135 137 135 136 129 125 118 113 119 118 113 106 112 111 105 102 110 110 109 100 97 103 104 105 106 108 106 108 105 104 101 97 96 92 86 80 81 80 76 66 65 53 78 113
250 241 230 219 208 198 192 186 181 177 171 172 171 172 179 178 173 174 166 163 167 170 169 168 170 167 165 161 164 164 161 148 136 136 146 142 138 141 139 143 148 135 132 131 123 132 135 130 122 119 119 118 122 117 120 121 109 104 121 118 117 108 108 114 117 108 114 117 114 111 114 115 113 105 97 91 88 81 86 84 75 77 69 62 83
262 256 244 223 207 196 187 180 175 168 164 162 167 173 174 171 175 173 170 170 172 172 171 172 166 165 164 166 165 162 139 141 140 143 142 139 140 135 130 127 137 138 132 134 133 135 136 127 130 133 129 136 133 132 128 118 111 111 100 110 121 119 117 118 121 117 117 122 122 117 116 114 117 110 109 106 98 95 92 87 85 82 79 64 80
270 264 250 221 197 176 162 155 154 158 165 168 166 165 169 175 179 173 170 175 172 173 172 167 167 164 167 155 157 153 153 158 136 155 127 144 142 147 151 152 158 140 153 121 135 129 125 136 136 135 134 130 127 131 132 119 124 123 118 123 127 126 125 123 130 130 131 128 126 122 119 119 119 117 120 115 116 112 103 98 94 97 97 90 90
275 264 234 192 166 158 159 160 163 167 169 166 163 167 172 173 173 177 175 175 172 170 166 166 165 165 162 161 156 155 157 159 160 164 164 163 161 158 158 158 158 158 150 123 132 134 131 128 129 134 140 136 136 137 134 126 125 132 137 140 143 144 143 144 142 141 137 134 129 129 132 131 128 118 117 117 119 114 108 107 111 109 106 104 100
304 288 122 136 138 139 147 155 159 160 165 169 167 165 166 171 176 175 176 171 169 169 167 164 163 162 161 160 160 158 160 162 166 167 165 163 160 160 160 159 151 144 156 159 142 135 136 138 138 145 142 141 139 143 137 132 139 145 144 149 152 149 146 148 146 145 145 144 141 136 142 139 132 123 126 126 125 123 124 128 121 113 112 114 87
345 92 128 130 141 153 160 162 163 162 164 168 166 166 169 171 173 176 174 171 168 167 166 168 165 163 164 165 165 164 166 168 167 166 166 161 162 159 160 158 155 148 158 155 144 135 138 143 150 152 148 149 151 142 142 137 150 156 153 150 152 151 152 151 150 149 150 147 148 147 146 143 138 130 136 137 142 139 140 135 133 127 127 122 117
353 98 139 151 154 153 158 161 160 162 165 167 170 166 168 169 173 171 169 170 171 166 167 167 168 167 168 170 169 169 172 170 168 165 165 162 161 162 162 163 161 144 143 140 148 157 157 154 147 144 139 138 141 157 157 159 158 154 152 152 151 151 152 150 149 151 150 152 150 148 149 148 148 145 150 151 151 148 141 137 135 138 134 135 142
162 159 148 131 143 159 161 158 159 159 161 164 168 171 169 168 170 174 174 172 170 168 169 169 171 171 170 174 173 175 171 168 166 163 160 162 166 167 166 167 167 136 150 155 152 156 158 151 152 149 163 161 158 159 161 162 161 159 157 155 152 150 149 148 152 152 151 149 148 149 152 157 156 154 152 156 151 147 144 143 146 147 146 155 167
140 152 166 167 157 153 160 162 159 161 159 161 166 173 173 172 174 175 174 173 173 169 169 172 172 174 176 177 177 170 167 165 160 159 163 167 167 166 165 164 163 162 157 158 163 157 155 147 156 163 159 157 158 163 168 167 166 164 160 158 156 153 152 150 150 151 153 153 155 158 160 163 158 155 152 151 149 149 144 145 154 148 157 168 169
186 183 185 175 165 160 161 164 162 158 162 165 168 168 173 176 179 180 177 178 172 169 171 174 175 179 180 176 169 166 162 159 160 163 167 169 167 164 164 167 170 147 139 145 134 147 148 150 150 156 155 160 168 174 174 172 168 169 163 160 160 157 156 154 153 156 160 161 163 162 161 159 155 158 159 154 157 156 150 154 159 160 169 168 165
200 195 186 191 180 164 154 158 157 167 167 169 167 176 180 181 181 179 176 176 169 174 172 174 179 180 175 171 165 163 164 162 166 170 171 166 166 167 167 168 170 171 157 135 144 144 151 154 158 162 163 167 177 179 183 180 175 168 166 162 159 161 161 161 161 163 167 168 166 158 162 164 165 165 167 167 166 164 160 155 161 170 168 163 167
202 194 191 190 190 184 169 162 168 171 173 174 173 177 179 181 179 177 178 173 170 174 177 178 181 178 171 167 168 169 167 172 174 169 169 169 165 167 167 165 163 168 168 169 155 163 169 168 168 165 167 179 182 184 186 184 181 173 165 165 164 167 169 168 171 168 168 169 166 165 166 173 172 172 173 176 171 167 164 165 170 171 170 164 154
199 192 189 185 190 187 184 182 179 177 177 176 176 178 179 184 177 179 178 172 176 178 178 180 178 173 171 173 175 172 167 173 172 175 170 166 162 164 168 160 156 150 151 146 170 174 167 167 167 167 181 185 186 188 188 188 184 179 171 169 169 169 172 175 173 172 171 168 168 167 172 175 173 169 172 176 172 171 166 167 169 173 173 173 171
195 191 188 186 186 188 187 185 180 179 180 181 176 175 183 180 179 179 171 175 180 181 180 180 179 176 177 177 175 176 173 176 176 169 164 162 166 168 147 157 170 166 148 169 174 162 173 174 175 178 188 188 189 192 193 191 188 183 178 170 174 170 172 177 174 176 173 171 168 167 167 168 165 168 164 157 150 163 169 172 172 173 161 155 155
204 197 193 188 181 184 188 187 187 186 185 178 177 180 179 175 174 173 177 179 181 184 183 182 179 182 181 180 179 180 178 177 172 166 156 158 160 169 156 153 150 162 174 178 165 181 176 178 184 177 187 187 190 198 196 194 191 187 182 174 159 174 176 173 175 177 176 175 172 169 166 166 172 167 159 155 149 153 159 163 163 154 153 155 148
199 196 197 190 186 185 182 182 183 177 169 167 178 175 166 170 172 175 181 181 187 185 187 184 183 184 182 181 183 167 158 155 146 147 157 162 168 146 157 164 168 173 177 182 178 180 183 173 179 176 189 194 198 199 200 196 193 188 185 174 151 152 171 179 182 182 181 177 174 172 171 171 172 170 168 164 158 159 158 144 139 146 130 114 118
203 196 195 187 188 186 187 187 173 165 171 175 177 171 171 178 174 181 182 187 187 189 189 187 187 188 186 184 184 176 179 170 176 151 162 166 166 169 170 170 169 160 158 139 167 166 179 186 184 182 191 199 198 200 202 199 194 191 185 169 166 174 178 181 187 178 170 177 178 175 174 176 175 172 179 176 170 162 163 155 152 141 132 127 145
228 196 197 194 187 189 185 171 171 176 175 179 171 170 173 172 178 184 183 187 188 194 195 193 193 190 188 184 184 183 184 181 174 165 178 175 169 166 155 173 178 173 174 184 189 186 173 174 182 185 192 198 196 201 204 201 197 192 186 162 171 170 173 172 181 173 171 173 179 178 176 171 175 177 185 186 182 175 171 168 161 154 151 145 151
223 195 181 171 174 163 161 170 175 181 181 173 171 174 174 179 184 185 185 190 193 200 197 195 195 188 183 180 181 180 181 180 183 185 178 168 185 174 153 181 178 175 184 186 168 157 179 179 185 191 194 189 186 198 204 203 200 196 187 166 170 177 175 178 173 178 176 178 178 183 178 169 174 178 189 191 190 183 175 173 164 155 154 158 149
208 186 183 178 177 173 167 165 171 180 183 177 175 176 180 188 188 188 191 195 201 200 193 193 186 172 163 166 173 180 185 186 193 196 192 186 186 184 181 180 169 170 182 168 184 189 187 194 196 197 197 200 181 192 203 204 202 199 191 160 172 177 178 182 179 178 181 173 182 189 185 182 178 182 192 197 197 188 175 177 170 155 173 179 171
257 234 188 166 149 138 159 169 178 188 174 173 175 181 192 193 192 191 197 203 200 194 185 178 177 176 173 174 180 186 191 193 196 194 192 196 188 183 186 188 190 193 195 193 196 201 191 200 200 199 197 203 186 184 203 206 203 202 192 167 177 179 188 182 173 181 170 183 186 187 196 195 193 193 198 202 204 199 175 177 161 176 177 183 155
226 216 150 147 167 171 177 187 188 173 168 171 173 181 194 196 193 199 209 204 191 179 180 180 180 183 184 185 188 191 193 196 194 194 192 191 189 189 185 190 191 192 193 196 199 203 205 209 206 205 199 201 196 190 203 207 206 203 199 177 188 192 192 187 184 184 182 183 184 189 186 200 200 200 200 204 205 207 181 165 176 186 183 155 144
301 211 167 164 169 183 186 183 175 169 171 173 175 184 193 194 196 206 204 190 189 188 185 186 188 191 191 191 193 194 194 195 190 185 191 194 193 191 192 192 192 191 195 200 199 201 205 208 207 206 206 208 203 202 199 210 211 206 205 191 185 198 189 181 182 192 187 193 187 185 180 197 202 201 202 204 206 209 195 176 189 181 171 164 152
161 163 210 175 181 190 191 186 175 173 172 177 179 190 195 195 205 209 196 192 190 186 187 188 191 192 193 193 192 190 190 190 191 188 189 195 189 192 195 192 192 195 200 202 201 200 203 210 209 209 209 207 204 204 202 206 213 212 208 205 193 187 190 182 188 194 198 191 177 177 178 193 200 201 202 204 206 209 202 182 183 188 190 173 146
243 219 184 176 188 202 211 196 181 176 176 180 183 190 196 203 217 205 192 188 187 190 188 191 194 195 192 193 191 189 189 189 190 186 190 191 191 192 193 194 193 196 199 202 204 201 203 209 210 212 210 208 205 204 203 205 211 215 212 211 206 193 191 189 194 201 177 175 179 187 190 195 199 200 202 204 207 208 187 178 188 187 189 148 121
200 210 192 185 190 187 179 185 195 192 191 188 188 190 195 210 213 185 186 182 185 184 190 197 198 196 195 191 186 188 189 187 186 183 187 191 192 186 193 196 193 199 201 204 206 200 205 208 210 214 212 206 204 204 208 208 208 215 216 213 212 206 203 196 195 201 189 193 196 195 194 195 199 200 203 206 207 212 182 182 186 186 152 132 143
203 195 183 194 190 179 178 189 193 191 193 196 201 197 202 217 190 180 185 183 182 185 191 197 194 193 192 181 185 191 190 190 187 190 194 193 191 189 195 194 197 202 202 205 204 202 207 209 215 215 213 208 201 203 209 208 206 213 218 220 215 212 204 204 195 193 191 192 195 196 194 195 198 200 200 203 197 210 185 184 187 166 139 150 150
208 202 164 175 180 186 198 197 200 198 196 196 198 207 219 197 176 188 184 182 185 188 194 194 196 195 189 187 192 193 193 193 194 195 197 196 196 195 198 199 199 201 202 205 205 205 208 211 216 215 213 206 204 205 208 206 202 201 210 218 219 219 203 198 197 190 186 190 194 196 196 195 192 197 198 198 193 187 175 181 166 138 157 151 162
213 177 178 172 185 197 200 198 209 203 197 198 201 209 209 197 178 175 176 177 188 191 194 196 194 190 191 191 197 193 191 193 196 194 195 198 200 198 199 203 199 198 197 203 204 207 209 209 212 208 207 208 210 208 207 204 201 199 203 207 216 215 203 193 193 186 187 187 185 189 191 191 189 195 198 187 172 163 158 142 140 148 151 153 151
194 196 178 189 194 202 205 200 214 200 192 197 207 210 203 197 187 175 173 180 189 193 194 194 190 190 197 195 197 194 196 195 197 200 206 201 196 197 204 211 212 202 201 200 201 210 210 210 207 205 204 212 214 214 215 197 196 190 191 192 200 208 207 198 194 180 171 172 174 182 184 186 188 190 183 179 168 135 83 144 148 155 158 154 151
228 186 196 204 205 203 205 209 219 194 190 199 207 209 203 198 186 180 176 185 189 186 191 196 192 195 199 195 198 199 198 198 198 201 204 217 221 214 210 208 213 210 211 212 206 210 206 203 207 213 205 210 212 217 187 191 195 195 198 200 205 209 213 201 187 183 172 177 185 188 190 189 190 183 184 183 178 176 141 125 158 166 166 168 174
216 189 208 205 212 211 213 219 222 193 198 202 207 206 202 195 189 184 183 189 181 185 194 199 195 202 198 195 194 196 196 198 200 199 201 207 214 223 223 222 221 212 209 214 216 219 213 207 205 215 215 221 223 189 181 189 194 196 198 201 204 207 210 200 186 176 178 185 187 190 194 193 193 189 191 189 180 180 179 176 169 181 187 183 179